{"data":{"norad_id":64766,"epoch":"2026-09-20T03:56:57.424128Z","epoch_age_seconds":156951,"freshness":"FRESH","line1":"1 64766U 25147M   26263.16455352  .00022157  00000+0  66471-3 0  9991","line2":"2 64766  53.1614  58.9464 0001516  81.5673 278.5501 15.34412450 68539","mean_motion":15.3441245,"eccentricity":0.0001516,"inclination_deg":53.1614,"raan_deg":58.9464,"arg_perigee_deg":81.5673,"mean_anomaly_deg":278.5501,"bstar":0.00066471,"rev_number":6853,"period_min":93.846996614242,"perigee_km":461.62917066295,"apogee_km":463.70330220423,"semimajor_km":6840.8032364336,"source":"CELESTRAK","updated_at":"2026-09-21T09:00:35.438381Z"}}